Year,Month,Day,Hour,Minute,Value (Times are PST for temperature in C)
2012,03,23,00,00,5.40
2012,03,23,00,01,5.40
2012,03,23,00,02,5.40
2012,03,23,00,03,5.40
2012,03,23,00,04,5.30
2012,03,23,00,05,5.30
2012,03,23,00,06,5.30
2012,03,23,00,07,5.30
2012,03,23,00,08,5.30
2012,03,23,00,09,5.30
2012,03,23,00,10,5.30
2012,03,23,00,11,5.30
2012,03,23,00,12,5.30
2012,03,23,00,13,5.30
2012,03,23,00,14,5.30
2012,03,23,00,15,5.30
2012,03,23,00,16,5.30
2012,03,23,00,17,5.30
2012,03,23,00,18,5.30
2012,03,23,00,19,5.30
2012,03,23,00,20,5.20
2012,03,23,00,21,5.20
2012,03,23,00,22,5.20
2012,03,23,00,23,5.20
2012,03,23,00,24,5.30
2012,03,23,00,25,5.30
2012,03,23,00,26,5.30
2012,03,23,00,27,5.30
2012,03,23,00,28,5.30
2012,03,23,00,29,5.30
2012,03,23,00,30,5.30
2012,03,23,00,31,5.30
2012,03,23,00,32,5.30
2012,03,23,00,33,5.40
2012,03,23,00,34,5.30
2012,03,23,00,35,5.30
2012,03,23,00,36,5.30
2012,03,23,00,37,5.30
2012,03,23,00,38,5.30
2012,03,23,00,39,5.30
2012,03,23,00,40,5.30
2012,03,23,00,41,5.30
2012,03,23,00,42,5.30
2012,03,23,00,43,5.30
2012,03,23,00,44,5.30
2012,03,23,00,45,5.30
2012,03,23,00,46,5.30
2012,03,23,00,47,5.30
2012,03,23,00,48,5.30
2012,03,23,00,49,5.30
2012,03,23,00,50,5.30
2012,03,23,00,51,5.30
2012,03,23,00,52,5.30
2012,03,23,00,53,5.30
2012,03,23,00,54,5.30
2012,03,23,00,55,5.30
2012,03,23,00,56,5.30
2012,03,23,00,57,5.30
2012,03,23,00,58,5.20
2012,03,23,00,59,5.20
2012,03,23,01,00,5.20
2012,03,23,01,01,5.20
2012,03,23,01,02,5.20
2012,03,23,01,03,5.20
2012,03,23,01,04,5.20
2012,03,23,01,05,5.20
2012,03,23,01,06,5.20
2012,03,23,01,07,5.20
2012,03,23,01,08,5.20
2012,03,23,01,09,5.10
2012,03,23,01,10,5.10
2012,03,23,01,11,5.10
2012,03,23,01,12,5.10
2012,03,23,01,13,5.10
2012,03,23,01,14,5.10
2012,03,23,01,15,5.00
2012,03,23,01,16,5.00
2012,03,23,01,17,5.00
2012,03,23,01,18,4.90
2012,03,23,01,19,4.90
2012,03,23,01,20,4.90
2012,03,23,01,21,4.90
2012,03,23,01,22,4.90
2012,03,23,01,23,4.90
2012,03,23,01,24,4.90
2012,03,23,01,25,4.90
2012,03,23,01,26,4.80
2012,03,23,01,27,4.80
2012,03,23,01,28,4.80
2012,03,23,01,29,4.80
2012,03,23,01,30,4.80
2012,03,23,01,31,4.80
2012,03,23,01,32,4.80
2012,03,23,01,33,4.80
2012,03,23,01,34,4.80
2012,03,23,01,35,4.80
2012,03,23,01,36,4.80
2012,03,23,01,37,4.80
2012,03,23,01,38,4.80
2012,03,23,01,39,4.80
2012,03,23,01,40,4.80
2012,03,23,01,41,4.80
2012,03,23,01,42,4.80
2012,03,23,01,43,4.80
2012,03,23,01,44,4.80
2012,03,23,01,45,4.80
2012,03,23,01,46,4.80
2012,03,23,01,47,4.80
2012,03,23,01,48,4.80
2012,03,23,01,49,4.80
2012,03,23,01,50,4.80
2012,03,23,01,51,4.80
2012,03,23,01,52,4.80
2012,03,23,01,53,4.80
2012,03,23,01,54,4.80
2012,03,23,01,55,4.80
2012,03,23,01,56,4.80
2012,03,23,01,57,4.90
2012,03,23,01,58,4.90
2012,03,23,01,59,4.90
2012,03,23,02,00,4.90
2012,03,23,02,01,4.90
2012,03,23,02,02,4.90
2012,03,23,02,03,4.90
2012,03,23,02,04,4.90
2012,03,23,02,05,4.90
2012,03,23,02,06,4.80
2012,03,23,02,07,4.80
2012,03,23,02,08,4.80
2012,03,23,02,09,4.80
2012,03,23,02,10,4.80
2012,03,23,02,11,4.80
2012,03,23,02,12,4.80
2012,03,23,02,13,4.80
2012,03,23,02,14,4.70
2012,03,23,02,15,4.70
2012,03,23,02,16,4.70
2012,03,23,02,17,4.70
2012,03,23,02,18,4.70
2012,03,23,02,19,4.70
2012,03,23,02,20,4.70
2012,03,23,02,21,4.70
2012,03,23,02,22,4.70
2012,03,23,02,23,4.60
2012,03,23,02,24,4.60
2012,03,23,02,25,4.60
2012,03,23,02,26,4.60
2012,03,23,02,27,4.60
2012,03,23,02,28,4.60
2012,03,23,02,29,4.60
2012,03,23,02,30,4.60
2012,03,23,02,31,4.50
2012,03,23,02,32,4.50
2012,03,23,02,33,4.50
2012,03,23,02,34,4.50
2012,03,23,02,35,4.50
2012,03,23,02,36,4.50
2012,03,23,02,37,4.40
2012,03,23,02,38,4.40
2012,03,23,02,39,4.40
2012,03,23,02,40,4.40
2012,03,23,02,41,4.40
2012,03,23,02,42,4.40
2012,03,23,02,43,4.40
2012,03,23,02,44,4.40
2012,03,23,02,45,4.40
2012,03,23,02,46,4.40
2012,03,23,02,47,4.40
2012,03,23,02,48,4.40
2012,03,23,02,49,4.40
2012,03,23,02,50,4.40
2012,03,23,02,51,4.40
2012,03,23,02,52,4.30
2012,03,23,02,53,4.30
2012,03,23,02,54,4.30
2012,03,23,02,55,4.30
2012,03,23,02,56,4.30
2012,03,23,02,57,4.20
2012,03,23,02,58,4.20
2012,03,23,02,59,4.20
2012,03,23,03,00,4.20
2012,03,23,03,01,4.10
2012,03,23,03,02,4.10
2012,03,23,03,03,4.10
2012,03,23,03,04,4.10
2012,03,23,03,05,4.10
2012,03,23,03,06,4.00
2012,03,23,03,07,4.00
2012,03,23,03,08,4.00
2012,03,23,03,09,4.00
2012,03,23,03,10,4.00
2012,03,23,03,11,4.00
2012,03,23,03,12,4.00
2012,03,23,03,13,4.00
2012,03,23,03,14,3.90
2012,03,23,03,15,3.90
2012,03,23,03,16,3.90
2012,03,23,03,17,3.90
2012,03,23,03,18,3.90
2012,03,23,03,19,3.90
2012,03,23,03,20,3.90
2012,03,23,03,21,3.90
2012,03,23,03,22,3.90
2012,03,23,03,23,3.90
2012,03,23,03,24,3.80
2012,03,23,03,25,3.80
2012,03,23,03,26,3.80
2012,03,23,03,27,3.80
2012,03,23,03,28,3.80
2012,03,23,03,29,3.80
2012,03,23,03,30,3.80
2012,03,23,03,31,3.70
2012,03,23,03,32,3.70
2012,03,23,03,33,3.70
2012,03,23,03,34,3.70
2012,03,23,03,35,3.70
2012,03,23,03,36,3.60
2012,03,23,03,37,3.60
2012,03,23,03,38,3.60
2012,03,23,03,39,3.60
2012,03,23,03,40,3.60
2012,03,23,03,41,3.60
2012,03,23,03,42,3.50
2012,03,23,03,43,3.50
2012,03,23,03,44,3.50
2012,03,23,03,45,3.50
2012,03,23,03,46,3.50
2012,03,23,03,47,3.50
2012,03,23,03,48,3.40
2012,03,23,03,49,3.40
2012,03,23,03,50,3.40
2012,03,23,03,51,3.30
2012,03,23,03,52,3.30
2012,03,23,03,53,3.30
2012,03,23,03,54,3.20
2012,03,23,03,55,3.20
2012,03,23,03,56,3.20
2012,03,23,03,57,3.20
2012,03,23,03,58,3.10
2012,03,23,03,59,3.10
2012,03,23,04,00,3.10
2012,03,23,04,01,3.10
2012,03,23,04,02,3.10
2012,03,23,04,03,3.10
2012,03,23,04,04,3.10
2012,03,23,04,05,3.10
2012,03,23,04,06,3.10
2012,03,23,04,07,3.00
2012,03,23,04,08,3.00
2012,03,23,04,09,2.90
2012,03,23,04,10,2.90
2012,03,23,04,11,2.90
2012,03,23,04,12,2.90
2012,03,23,04,13,2.90
2012,03,23,04,14,2.90
2012,03,23,04,15,2.90
2012,03,23,04,16,2.90
2012,03,23,04,17,2.80
2012,03,23,04,18,2.80
2012,03,23,04,19,2.80
2012,03,23,04,20,2.80
2012,03,23,04,21,2.80
2012,03,23,04,22,2.70
2012,03,23,04,23,2.70
2012,03,23,04,24,2.70
2012,03,23,04,25,2.70
2012,03,23,04,26,2.60
2012,03,23,04,27,2.60
2012,03,23,04,28,2.60
2012,03,23,04,29,2.60
2012,03,23,04,30,2.50
2012,03,23,04,31,2.50
2012,03,23,04,32,2.50
2012,03,23,04,33,2.40
2012,03,23,04,34,2.40
2012,03,23,04,35,2.40
2012,03,23,04,36,2.40
2012,03,23,04,37,2.30
2012,03,23,04,38,2.30
2012,03,23,04,39,2.30
2012,03,23,04,40,2.30
2012,03,23,04,41,2.20
2012,03,23,04,42,2.20
2012,03,23,04,43,2.20
2012,03,23,04,44,2.20
2012,03,23,04,45,2.10
2012,03,23,04,46,2.10
2012,03,23,04,47,2.10
2012,03,23,04,48,2.10
2012,03,23,04,49,2.10
2012,03,23,04,50,2.10
2012,03,23,04,51,2.10
2012,03,23,04,52,2.10
2012,03,23,04,53,2.10
2012,03,23,04,54,2.10
2012,03,23,04,55,2.10
2012,03,23,04,56,2.00
2012,03,23,04,57,2.00
2012,03,23,04,58,1.90
2012,03,23,04,59,1.90
2012,03,23,05,00,1.90
2012,03,23,05,01,1.80
2012,03,23,05,02,1.80
2012,03,23,05,03,1.80
2012,03,23,05,04,1.80
2012,03,23,05,05,1.80
2012,03,23,05,07,1.80
2012,03,23,05,10,1.80
2012,03,23,05,11,1.80
2012,03,23,05,12,1.80
2012,03,23,05,13,1.80
2012,03,23,05,14,1.80
2012,03,23,05,15,1.80
2012,03,23,05,16,1.70
2012,03,23,05,17,1.70
2012,03,23,05,18,1.70
2012,03,23,05,19,1.70
2012,03,23,05,20,1.60
2012,03,23,05,21,1.60
2012,03,23,05,22,1.60
2012,03,23,05,23,1.60
2012,03,23,05,24,1.50
2012,03,23,05,25,1.50
2012,03,23,05,26,1.40
2012,03,23,05,27,1.40
2012,03,23,05,28,1.30
2012,03,23,05,29,1.30
2012,03,23,05,30,1.30
2012,03,23,05,31,1.30
2012,03,23,05,32,1.30
2012,03,23,05,33,1.30
2012,03,23,05,34,1.30
2012,03,23,05,35,1.30
2012,03,23,05,36,1.20
2012,03,23,05,37,1.20
2012,03,23,05,38,1.30
2012,03,23,05,39,1.30
2012,03,23,05,40,1.30
2012,03,23,05,41,1.30
2012,03,23,05,42,1.20
2012,03,23,05,43,1.20
2012,03,23,05,44,1.20
2012,03,23,05,45,1.10
2012,03,23,05,46,1.10
2012,03,23,05,47,1.10
2012,03,23,05,48,1.10
2012,03,23,05,49,1.10
2012,03,23,05,50,1.20
2012,03,23,05,51,1.20
2012,03,23,05,52,1.20
2012,03,23,05,53,1.20
2012,03,23,05,54,1.30
2012,03,23,05,55,1.30
2012,03,23,05,56,1.30
2012,03,23,05,57,1.30
2012,03,23,05,58,1.30
2012,03,23,05,59,1.30
2012,03,23,06,00,1.30
2012,03,23,06,01,1.30
2012,03,23,06,02,1.20
2012,03,23,06,03,1.10
2012,03,23,06,04,1.10
2012,03,23,06,05,1.00
2012,03,23,06,06,1.00
2012,03,23,06,07,1.00
2012,03,23,06,08,0.90
2012,03,23,06,09,0.90
2012,03,23,06,10,0.90
2012,03,23,06,11,0.80
2012,03,23,06,12,0.80
2012,03,23,06,13,0.80
2012,03,23,06,14,0.80
2012,03,23,06,15,0.80
2012,03,23,06,16,0.80
2012,03,23,06,17,0.80
2012,03,23,06,18,0.80
2012,03,23,06,19,0.80
2012,03,23,06,20,0.80
2012,03,23,06,21,0.80
2012,03,23,06,22,0.70
2012,03,23,06,23,0.70
2012,03,23,06,24,0.70
2012,03,23,06,25,0.60
2012,03,23,06,26,0.60
2012,03,23,06,27,0.60
2012,03,23,06,28,0.60
2012,03,23,06,29,0.60
2012,03,23,06,30,0.50
2012,03,23,06,31,0.50
2012,03,23,06,32,0.50
2012,03,23,06,33,0.50
2012,03,23,06,34,0.40
2012,03,23,06,35,0.40
2012,03,23,06,36,0.40
2012,03,23,06,37,0.30
2012,03,23,06,38,0.30
2012,03,23,06,39,0.30
2012,03,23,06,40,0.30
2012,03,23,06,41,0.30
2012,03,23,06,42,0.30
2012,03,23,06,43,0.40
2012,03,23,06,44,0.40
2012,03,23,06,45,0.40
2012,03,23,06,46,0.40
2012,03,23,06,47,0.40
2012,03,23,06,48,0.40
2012,03,23,06,49,0.40
2012,03,23,06,50,0.30
2012,03,23,06,51,0.30
2012,03,23,06,52,0.30
2012,03,23,06,53,0.30
2012,03,23,06,54,0.20
2012,03,23,06,55,0.20
2012,03,23,06,56,0.20
2012,03,23,06,57,0.20
2012,03,23,06,58,0.20
2012,03,23,06,59,0.20
2012,03,23,07,00,0.20
2012,03,23,07,01,0.20
2012,03,23,07,02,0.20
2012,03,23,07,03,0.20
2012,03,23,07,04,0.20
2012,03,23,07,05,0.30
2012,03,23,07,06,0.30
2012,03,23,07,07,0.30
2012,03,23,07,08,0.30
2012,03,23,07,09,0.30
2012,03,23,07,10,0.30
2012,03,23,07,11,0.30
2012,03,23,07,12,0.30
2012,03,23,07,13,0.30
2012,03,23,07,14,0.30
2012,03,23,07,15,0.30
2012,03,23,07,16,0.30
2012,03,23,07,17,0.30
2012,03,23,07,18,0.30
2012,03,23,07,19,0.30
2012,03,23,07,20,0.20
2012,03,23,07,21,0.20
2012,03,23,07,22,0.20
2012,03,23,07,23,0.20
2012,03,23,07,24,0.20
2012,03,23,07,25,0.20
2012,03,23,07,26,0.20
2012,03,23,07,27,0.20
2012,03,23,07,28,0.20
2012,03,23,07,29,0.20
2012,03,23,07,30,0.20
2012,03,23,07,31,0.20
2012,03,23,07,32,0.20
2012,03,23,07,33,0.20
2012,03,23,07,34,0.20
2012,03,23,07,35,0.20
2012,03,23,07,36,0.20
2012,03,23,07,37,0.20
2012,03,23,07,38,0.20
2012,03,23,07,39,0.20
2012,03,23,07,40,0.10
2012,03,23,07,41,0.10
2012,03,23,07,42,0.10
2012,03,23,07,43,0.10
2012,03,23,07,44,0.10
2012,03,23,07,45,0.10
2012,03,23,07,46,0.10
2012,03,23,07,47,0.10
2012,03,23,07,48,0.20
2012,03,23,07,49,0.20
2012,03,23,07,50,0.20
2012,03,23,07,51,0.20
2012,03,23,07,52,0.20
2012,03,23,07,53,0.30
2012,03,23,07,54,0.30
2012,03,23,07,55,0.40
2012,03,23,07,56,0.40
2012,03,23,07,57,0.40
2012,03,23,07,58,0.40
2012,03,23,07,59,0.50
2012,03,23,08,00,0.50
2012,03,23,08,01,0.60
2012,03,23,08,02,0.60
2012,03,23,08,03,0.70
2012,03,23,08,04,0.70
2012,03,23,08,05,0.80
2012,03,23,08,06,0.80
2012,03,23,08,07,0.90
2012,03,23,08,08,1.00
2012,03,23,08,09,1.00
2012,03,23,08,10,1.10
2012,03,23,08,11,1.10
2012,03,23,08,12,1.10
2012,03,23,08,13,1.10
2012,03,23,08,14,1.10
2012,03,23,08,15,1.20
2012,03,23,08,16,1.20
2012,03,23,08,17,1.20
2012,03,23,08,18,1.20
2012,03,23,08,19,1.30
2012,03,23,08,20,1.30
2012,03,23,08,21,1.30
2012,03,23,08,22,1.30
2012,03,23,08,23,1.30
2012,03,23,08,24,1.40
2012,03,23,08,25,1.50
2012,03,23,08,26,1.60
2012,03,23,08,27,1.70
2012,03,23,08,28,1.80
2012,03,23,08,29,1.80
2012,03,23,08,30,1.80
2012,03,23,08,31,1.80
2012,03,23,08,32,1.80
2012,03,23,08,33,1.90
2012,03,23,08,34,1.90
2012,03,23,08,35,2.00
2012,03,23,08,36,2.00
2012,03,23,08,37,2.10
2012,03,23,08,38,2.20
2012,03,23,08,39,2.20
2012,03,23,08,40,2.30
2012,03,23,08,41,2.30
2012,03,23,08,42,2.40
2012,03,23,08,43,2.50
2012,03,23,08,44,2.60
2012,03,23,08,45,2.60
2012,03,23,08,46,2.70
2012,03,23,08,47,2.80
2012,03,23,08,48,2.90
2012,03,23,08,49,2.90
2012,03,23,08,50,3.00
2012,03,23,08,51,3.10
2012,03,23,08,52,3.10
2012,03,23,08,53,3.20
2012,03,23,08,54,3.30
2012,03,23,08,55,3.40
2012,03,23,08,56,3.40
2012,03,23,08,57,3.50
2012,03,23,08,58,3.60
2012,03,23,08,59,3.60
2012,03,23,09,00,3.70
2012,03,23,09,01,3.70
2012,03,23,09,02,3.80
2012,03,23,09,03,3.80
2012,03,23,09,04,3.80
2012,03,23,09,05,3.90
2012,03,23,09,06,3.90
2012,03,23,09,07,3.90
2012,03,23,09,08,4.00
2012,03,23,09,09,4.00
2012,03,23,09,10,4.00
2012,03,23,09,11,4.10
2012,03,23,09,12,4.10
2012,03,23,09,13,4.20
2012,03,23,09,14,4.20
2012,03,23,09,15,4.30
2012,03,23,09,16,4.30
2012,03,23,09,17,4.40
2012,03,23,09,18,4.40
2012,03,23,09,19,4.40
2012,03,23,09,20,4.50
2012,03,23,09,21,4.50
2012,03,23,09,22,4.60
2012,03,23,09,23,4.60
2012,03,23,09,24,4.60
2012,03,23,09,25,4.70
2012,03,23,09,26,4.70
2012,03,23,09,27,4.70
2012,03,23,09,28,4.70
2012,03,23,09,29,4.70
2012,03,23,09,30,4.70
2012,03,23,09,31,4.80
2012,03,23,09,32,4.80
2012,03,23,09,33,4.80
2012,03,23,09,34,4.80
2012,03,23,09,35,4.80
2012,03,23,09,36,4.90
2012,03,23,09,37,4.90
2012,03,23,09,38,4.90
2012,03,23,09,39,5.00
2012,03,23,09,40,5.00
2012,03,23,09,41,5.00
2012,03,23,09,42,5.00
2012,03,23,09,43,5.00
2012,03,23,09,44,5.10
2012,03,23,09,45,5.10
2012,03,23,09,46,5.10
2012,03,23,09,47,5.10
2012,03,23,09,48,5.10
2012,03,23,09,49,5.20
2012,03,23,09,50,5.20
2012,03,23,09,51,5.20
2012,03,23,09,52,5.30
2012,03,23,09,53,5.30
2012,03,23,09,54,5.40
2012,03,23,09,55,5.50
2012,03,23,09,56,5.60
2012,03,23,09,57,5.60
2012,03,23,09,58,5.70
2012,03,23,09,59,5.70
2012,03,23,10,00,5.80
2012,03,23,10,01,5.90
2012,03,23,10,02,6.00
2012,03,23,10,03,6.00
2012,03,23,10,04,6.10
2012,03,23,10,05,6.20
2012,03,23,10,06,6.20
2012,03,23,10,07,6.20
2012,03,23,10,08,6.20
2012,03,23,10,09,6.20
2012,03,23,10,10,6.20
2012,03,23,10,11,6.30
2012,03,23,10,12,6.30
2012,03,23,10,13,6.30
2012,03,23,10,14,6.30
2012,03,23,10,15,6.30
2012,03,23,10,16,6.40
2012,03,23,10,17,6.50
2012,03,23,10,18,6.50
2012,03,23,10,19,6.60
2012,03,23,10,20,6.70
2012,03,23,10,21,6.70
2012,03,23,10,22,6.80
2012,03,23,10,23,6.70
2012,03,23,10,24,6.70
2012,03,23,10,25,6.70
2012,03,23,10,26,6.60
2012,03,23,10,27,6.60
2012,03,23,10,28,6.70
2012,03,23,10,29,6.70
2012,03,23,10,30,6.70
2012,03,23,10,31,6.70
2012,03,23,10,32,6.70
2012,03,23,10,33,6.70
2012,03,23,10,34,6.80
2012,03,23,10,35,6.80
2012,03,23,10,36,6.70
2012,03,23,10,37,6.80
2012,03,23,10,38,6.80
2012,03,23,10,39,6.80
2012,03,23,10,40,6.80
2012,03,23,10,41,6.80
2012,03,23,10,42,6.90
2012,03,23,10,43,6.90
2012,03,23,10,44,7.00
2012,03,23,10,45,7.10
2012,03,23,10,46,7.20
2012,03,23,10,47,7.10
2012,03,23,10,48,7.10
2012,03,23,10,49,7.10
2012,03,23,10,50,7.00
2012,03,23,10,51,7.00
2012,03,23,10,52,6.90
2012,03,23,10,53,7.00
2012,03,23,10,54,7.10
2012,03,23,10,55,7.10
2012,03,23,10,56,7.10
2012,03,23,10,57,7.20
2012,03,23,10,58,7.20
2012,03,23,10,59,7.20
2012,03,23,11,00,7.10
2012,03,23,11,01,7.10
2012,03,23,11,02,7.10
2012,03,23,11,03,7.10
2012,03,23,11,04,7.20
2012,03,23,11,05,7.30
2012,03,23,11,06,7.30
2012,03,23,11,07,7.40
2012,03,23,11,08,7.40
2012,03,23,11,09,7.40
2012,03,23,11,10,7.40
2012,03,23,11,11,7.40
2012,03,23,11,12,7.50
2012,03,23,11,13,7.50
2012,03,23,11,14,7.60
2012,03,23,11,15,7.60
2012,03,23,11,16,7.50
2012,03,23,11,17,7.40
2012,03,23,11,18,7.40
2012,03,23,11,19,7.50
2012,03,23,11,20,7.60
2012,03,23,11,21,7.70
2012,03,23,11,22,7.80
2012,03,23,11,23,7.90
2012,03,23,11,24,8.00
2012,03,23,11,25,8.00
2012,03,23,11,26,7.90
2012,03,23,11,27,8.00
2012,03,23,11,28,8.00
2012,03,23,11,29,8.00
2012,03,23,11,30,8.10
2012,03,23,11,31,8.10
2012,03,23,11,32,8.20
2012,03,23,11,33,8.20
2012,03,23,11,34,8.20
2012,03,23,11,35,8.20
2012,03,23,11,36,8.20
2012,03,23,11,37,8.10
2012,03,23,11,38,8.00
2012,03,23,11,39,8.00
2012,03,23,11,40,8.10
2012,03,23,11,41,8.10
2012,03,23,11,42,8.20
2012,03,23,11,43,8.20
2012,03,23,11,44,8.20
2012,03,23,11,45,8.10
2012,03,23,11,46,8.10
2012,03,23,11,47,8.10
2012,03,23,11,48,8.20
2012,03,23,11,49,8.30
2012,03,23,11,50,8.30
2012,03,23,11,51,8.20
2012,03,23,11,52,8.10
2012,03,23,11,53,8.10
2012,03,23,11,54,8.10
2012,03,23,11,55,8.10
2012,03,23,11,56,8.10
2012,03,23,11,57,8.20
2012,03,23,11,58,8.20
2012,03,23,11,59,8.20
2012,03,23,12,00,8.20
2012,03,23,12,01,8.30
2012,03,23,12,02,8.30
2012,03,23,12,03,8.30
2012,03,23,12,04,8.30
2012,03,23,12,05,8.30
2012,03,23,12,06,8.30
2012,03,23,12,07,8.20
2012,03,23,12,08,8.10
2012,03,23,12,09,8.00
2012,03,23,12,10,7.90
2012,03,23,12,11,7.90
2012,03,23,12,12,7.90
2012,03,23,12,13,7.90
2012,03,23,12,14,7.90
2012,03,23,12,15,7.90
2012,03,23,12,16,7.90
2012,03,23,12,17,7.90
2012,03,23,12,18,8.00
2012,03,23,12,19,8.10
2012,03,23,12,20,8.20
2012,03,23,12,21,8.30
2012,03,23,12,22,8.40
2012,03,23,12,23,8.40
2012,03,23,12,24,8.40
2012,03,23,12,25,8.50
2012,03,23,12,26,8.50
2012,03,23,12,27,8.60
2012,03,23,12,28,8.70
2012,03,23,12,29,8.70
2012,03,23,12,30,8.80
2012,03,23,12,31,8.80
2012,03,23,12,32,8.80
2012,03,23,12,33,8.80
2012,03,23,12,34,8.70
2012,03,23,12,35,8.70
2012,03,23,12,36,8.60
2012,03,23,12,37,8.60
2012,03,23,12,38,8.60
2012,03,23,12,39,8.60
2012,03,23,12,40,8.70
2012,03,23,12,41,8.60
2012,03,23,12,42,8.60
2012,03,23,12,43,8.60
2012,03,23,12,44,8.70
2012,03,23,12,45,8.70
2012,03,23,12,46,8.70
2012,03,23,12,47,8.80
2012,03,23,12,48,8.80
2012,03,23,12,49,8.90
2012,03,23,12,50,8.90
2012,03,23,12,51,8.90
2012,03,23,12,52,8.90
2012,03,23,12,53,8.90
2012,03,23,12,54,8.80
2012,03,23,12,55,8.80
2012,03,23,12,56,8.80
2012,03,23,12,57,8.80
2012,03,23,12,58,8.80
2012,03,23,12,59,8.90
2012,03,23,13,00,9.10
2012,03,23,13,01,9.10
2012,03,23,13,02,9.20
2012,03,23,13,03,9.30
2012,03,23,13,04,9.30
2012,03,23,13,05,9.20
2012,03,23,13,06,9.20
2012,03,23,13,07,9.10
2012,03,23,13,08,9.10
2012,03,23,13,09,9.00
2012,03,23,13,10,9.00
2012,03,23,13,11,9.00
2012,03,23,13,12,9.10
2012,03,23,13,13,9.10
2012,03,23,13,14,9.10
2012,03,23,13,15,9.20
2012,03,23,13,16,9.30
2012,03,23,13,17,9.40
2012,03,23,13,18,9.40
2012,03,23,13,19,9.40
2012,03,23,13,20,9.50
2012,03,23,13,21,9.50
2012,03,23,13,22,9.40
2012,03,23,13,23,9.40
2012,03,23,13,24,9.40
2012,03,23,13,25,9.40
2012,03,23,13,26,9.30
2012,03,23,13,27,9.30
2012,03,23,13,28,9.30
2012,03,23,13,29,9.30
2012,03,23,13,30,9.50
2012,03,23,13,31,9.50
2012,03,23,13,32,9.50
2012,03,23,13,33,9.60
2012,03,23,13,34,9.60
2012,03,23,13,35,9.70
2012,03,23,13,36,9.80
2012,03,23,13,37,9.80
2012,03,23,13,38,9.80
2012,03,23,13,39,9.80
2012,03,23,13,40,9.80
2012,03,23,13,41,9.70
2012,03,23,13,42,9.70
2012,03,23,13,43,9.70
2012,03,23,13,44,9.70
2012,03,23,13,45,9.70
2012,03,23,13,46,9.70
2012,03,23,13,47,9.80
2012,03,23,13,48,9.80
2012,03,23,13,49,9.80
2012,03,23,13,50,9.90
2012,03,23,13,51,9.90
2012,03,23,13,52,10.00
2012,03,23,13,53,9.90
2012,03,23,13,54,10.00
2012,03,23,13,55,10.00
2012,03,23,13,56,10.10
2012,03,23,13,57,10.10
2012,03,23,13,58,10.20
2012,03,23,13,59,10.10
2012,03,23,14,00,10.10
2012,03,23,14,01,10.20
2012,03,23,14,02,10.10
2012,03,23,14,03,10.10
2012,03,23,14,04,10.00
2012,03,23,14,05,9.90
2012,03,23,14,06,10.00
2012,03,23,14,07,10.10
2012,03,23,14,08,10.20
2012,03,23,14,09,10.30
2012,03,23,14,10,10.30
2012,03,23,14,11,10.40
2012,03,23,14,12,10.50
2012,03,23,14,13,10.50
2012,03,23,14,14,10.60
2012,03,23,14,15,10.60
2012,03,23,14,16,10.70
2012,03,23,14,17,10.70
2012,03,23,14,18,10.70
2012,03,23,14,19,10.60
2012,03,23,14,20,10.50
2012,03,23,14,21,10.50
2012,03,23,14,22,10.40
2012,03,23,14,23,10.40
2012,03,23,14,24,10.40
2012,03,23,14,25,10.50
2012,03,23,14,26,10.50
2012,03,23,14,27,10.50
2012,03,23,14,28,10.50
2012,03,23,14,29,10.40
2012,03,23,14,30,10.40
2012,03,23,14,31,10.30
2012,03,23,14,32,10.30
2012,03,23,14,33,10.30
2012,03,23,14,34,10.40
2012,03,23,14,35,10.50
2012,03,23,14,36,10.50
2012,03,23,14,37,10.60
2012,03,23,14,38,10.60
2012,03,23,14,39,10.60
2012,03,23,14,40,10.50
2012,03,23,14,41,10.50
2012,03,23,14,42,10.40
2012,03,23,14,43,10.40
2012,03,23,14,44,10.40
2012,03,23,14,45,10.50
2012,03,23,14,46,10.50
2012,03,23,14,47,10.60
2012,03,23,14,48,10.60
2012,03,23,14,49,10.50
2012,03,23,14,50,10.60
2012,03,23,14,51,10.60
2012,03,23,14,52,10.50
2012,03,23,14,53,10.50
2012,03,23,14,54,10.60
2012,03,23,14,55,10.60
2012,03,23,14,56,10.60
2012,03,23,14,57,10.70
2012,03,23,14,58,10.70
2012,03,23,14,59,10.70
2012,03,23,15,00,10.70
2012,03,23,15,01,10.70
2012,03,23,15,02,10.60
2012,03,23,15,03,10.60
2012,03,23,15,04,10.60
2012,03,23,15,05,10.40
2012,03,23,15,06,10.30
2012,03,23,15,07,10.20
2012,03,23,15,08,10.10
2012,03,23,15,09,10.10
2012,03,23,15,10,10.10
2012,03,23,15,11,10.10
2012,03,23,15,12,10.20
2012,03,23,15,13,10.20
2012,03,23,15,14,10.20
2012,03,23,15,15,10.20
2012,03,23,15,16,10.20
2012,03,23,15,17,10.20
2012,03,23,15,18,10.30
2012,03,23,15,19,10.30
2012,03,23,15,20,10.40
2012,03,23,15,21,10.40
2012,03,23,15,22,10.40
2012,03,23,15,23,10.30
2012,03,23,15,24,10.30
2012,03,23,15,25,10.30
2012,03,23,15,26,10.30
2012,03,23,15,27,10.30
2012,03,23,15,28,10.40
2012,03,23,15,29,10.30
2012,03,23,15,30,10.30
2012,03,23,15,31,10.30
2012,03,23,15,32,10.30
2012,03,23,15,33,10.30
2012,03,23,15,34,10.30
2012,03,23,15,35,10.40
2012,03,23,15,36,10.40
2012,03,23,15,37,10.40
2012,03,23,15,38,10.50
2012,03,23,15,39,10.60
2012,03,23,15,40,10.60
2012,03,23,15,41,10.70
2012,03,23,15,42,10.70
2012,03,23,15,43,10.70
2012,03,23,15,44,10.70
2012,03,23,15,45,10.70
2012,03,23,15,46,10.60
2012,03,23,15,47,10.50
2012,03,23,15,48,10.50
2012,03,23,15,49,10.40
2012,03,23,15,50,10.40
2012,03,23,15,51,10.40
2012,03,23,15,52,10.30
2012,03,23,15,53,10.40
2012,03,23,15,54,10.40
2012,03,23,15,55,10.40
2012,03,23,15,56,10.40
2012,03,23,15,57,10.40
2012,03,23,15,58,10.40
2012,03,23,15,59,10.50
2012,03,23,16,00,10.50
2012,03,23,16,01,10.50
2012,03,23,16,02,10.60
2012,03,23,16,03,10.60
2012,03,23,16,04,10.60
2012,03,23,16,05,10.60
2012,03,23,16,06,10.60
2012,03,23,16,07,10.60
2012,03,23,16,08,10.60
2012,03,23,16,09,10.60
2012,03,23,16,10,10.60
2012,03,23,16,11,10.50
2012,03,23,16,12,10.40
2012,03,23,16,13,10.40
2012,03,23,16,14,10.40
2012,03,23,16,15,10.30
2012,03,23,16,16,10.30
2012,03,23,16,17,10.40
2012,03,23,16,18,10.30
2012,03,23,16,19,10.30
2012,03,23,16,20,10.40
2012,03,23,16,21,10.50
2012,03,23,16,22,10.50
2012,03,23,16,23,10.60
2012,03,23,16,24,10.70
2012,03,23,16,25,10.70
2012,03,23,16,26,10.70
2012,03,23,16,27,10.60
2012,03,23,16,28,10.60
2012,03,23,16,29,10.50
2012,03,23,16,30,10.40
2012,03,23,16,31,10.40
2012,03,23,16,32,10.40
2012,03,23,16,33,10.50
2012,03,23,16,34,10.50
2012,03,23,16,35,10.60
2012,03,23,16,36,10.60
2012,03,23,16,37,10.60
2012,03,23,16,38,10.60
2012,03,23,16,39,10.50
2012,03,23,16,40,10.40
2012,03,23,16,41,10.40
2012,03,23,16,42,10.40
2012,03,23,16,43,10.40
2012,03,23,16,44,10.50
2012,03,23,16,45,10.60
2012,03,23,16,46,10.60
2012,03,23,16,47,10.60
2012,03,23,16,48,10.60
2012,03,23,16,49,10.50
2012,03,23,16,50,10.50
2012,03,23,16,51,10.50
2012,03,23,16,52,10.50
2012,03,23,16,53,10.40
2012,03,23,16,54,10.40
2012,03,23,16,55,10.40
2012,03,23,16,56,10.40
2012,03,23,16,57,10.40
2012,03,23,16,58,10.40
2012,03,23,16,59,10.40
2012,03,23,17,00,10.40
2012,03,23,17,01,10.40
2012,03,23,17,02,10.40
2012,03,23,17,03,10.40
2012,03,23,17,04,10.40
2012,03,23,17,05,10.40
2012,03,23,17,06,10.40
2012,03,23,17,07,10.40
2012,03,23,17,08,10.40
2012,03,23,17,09,10.40
2012,03,23,17,10,10.40
2012,03,23,17,11,10.40
2012,03,23,17,12,10.40
2012,03,23,17,13,10.40
2012,03,23,17,14,10.30
2012,03,23,17,15,10.30
2012,03,23,17,16,10.30
2012,03,23,17,17,10.30
2012,03,23,17,18,10.30
2012,03,23,17,19,10.30
2012,03,23,17,20,10.30
2012,03,23,17,21,10.30
2012,03,23,17,22,10.30
2012,03,23,17,23,10.30
2012,03,23,17,24,10.30
2012,03,23,17,25,10.40
2012,03,23,17,26,10.40
2012,03,23,17,27,10.40
2012,03,23,17,28,10.50
2012,03,23,17,29,10.50
2012,03,23,17,30,10.50
2012,03,23,17,31,10.50
2012,03,23,17,32,10.60
2012,03,23,17,33,10.60
2012,03,23,17,34,10.50
2012,03,23,17,35,10.50
2012,03,23,17,36,10.40
2012,03,23,17,37,10.40
2012,03,23,17,38,10.40
2012,03,23,17,39,10.40
2012,03,23,17,40,10.40
2012,03,23,17,41,10.30
2012,03,23,17,42,10.30
2012,03,23,17,43,10.30
2012,03,23,17,44,10.30
2012,03,23,17,45,10.30
2012,03,23,17,46,10.30
2012,03,23,17,47,10.30
2012,03,23,17,48,10.30
2012,03,23,17,49,10.30
2012,03,23,17,50,10.30
2012,03,23,17,51,10.30
2012,03,23,17,52,10.30
2012,03,23,17,53,10.30
2012,03,23,17,54,10.20
2012,03,23,17,55,10.20
2012,03,23,17,56,10.20
2012,03,23,17,57,10.10
2012,03,23,17,58,10.10